Location: Stillwell
(40.4602°N, 82.0928°W)
Time: 06:46:50
(UTC-04:00)

Cosmos 1356 - Pass Details

Date: 25 May 2018
Orbit: 452 x 454 km, 81.1° (Epoch: 18 June)

Event Time Altitude Azimuth Distance (km) Brightness Sun altitude
Exits shadow 22:17:05 26° 162° (SSE) 937 4.5 -14.5°
Maximum altitude 22:18:46 52° 97° (E) 572 3.6 -14.7°
Drops below altitude 10° 22:22:10 10° 20° (NNE) 1,595 6.5 -15.1°
Sets 22:24:16 0° 15° (NNE) 2,474 7.6 -15.4°
